Stevens Point, WI

11:23 AM CDT on October 20, 2019 (GMT -0500)
Stevens Point Municipal

Weather History for KSTE - August, 2019

Change the Weather History Date:

Friday, August 30, 2019

  Actual Average Record
Temperature  
Mean Temperature 56 °F -  
Max Temperature 68 °F 78 °F 91 °F (1984)
Min Temperature 45 °F 55 °F 42 °F (2003)
Degree Days  
Heating Degree Days 8    
Growing Degree Days 6 (Base 50)    
Moisture  
Dew Point 45 °F    
Average Humidity 67    
Maximum Humidity 99    
Minimum Humidity 38    
Precipitation  
Precipitation 0.00 in - - ()
Sea Level Pressure  
Sea Level Pressure 30.14 in    
Wind  
Wind Speed 5 mph (WNW)    
Max Wind Speed 14 mph    
Max Gust Speed 20 mph    
Visibility 10 miles    
Events      
Averages and records for this station are not official NWS values.
T = Trace of Precipitation, MM = Missing Value Source: NWS Daily Summary

Daily Weather History Graph

Daily Weather History Graph

Search for Another Location

Airport or City:

Astronomy

Aug. 30, 2019 Rise Set
Actual Time 6:18 AM CDT 7:38 PM CDT
Civil Twilight 5:47 AM CDT 8:08 PM CDT
Nautical Twilight 5:11 AM CDT 8:44 PM CDT
Astronomical Twilight 4:32 AM CDT 9:23 PM CDT
Moon 6:16 AM CDT (8/30) 8:15 PM CDT (8/30)
Length of Visible Light 14h 20m
Length of Day
13h 20m
New Moon, 0% of the Moon is Illuminated
Aug 30
New Moon
Sep 5
First Quarter
Sep 13
Full
Sep 21
Last Quarter
Sep 28
New

Hourly Weather History & Observations

Time (CDT) Temp. Dew Point Humidity Pressure Visibility Wind Dir Wind Speed Gust Speed Precip Events Conditions
12:15 AM 54.5 °F 49.3 °F 83% 30.00 in 10.0 mi West 3.5 mph - N/A   Clear
12:35 AM 54.1 °F 49.5 °F 84% 30.01 in 10.0 mi West 3.5 mph - N/A   Clear
12:55 AM 54.0 °F 49.3 °F 84% 30.01 in 10.0 mi West 3.5 mph - N/A   Clear
1:15 AM 54.1 °F 49.1 °F 83% 30.01 in 10.0 mi Calm Calm - N/A   Clear
1:35 AM 53.6 °F 48.9 °F 84% 30.01 in 10.0 mi West 4.6 mph - N/A   Clear
1:55 AM 53.1 °F 48.6 °F 85% 30.02 in 10.0 mi WNW 4.6 mph - N/A   Clear
2:15 AM 52.9 °F 48.2 °F 84% 30.01 in 10.0 mi West 4.6 mph - N/A   Clear
2:35 AM 52.2 °F 47.8 °F 85% 30.02 in 10.0 mi West 4.6 mph - N/A   Clear
2:55 AM 51.8 °F 47.5 °F 85% 30.02 in 10.0 mi West 4.6 mph - N/A   Clear
3:15 AM 51.3 °F 47.7 °F 87% 30.03 in 10.0 mi West 5.8 mph - N/A   Clear
3:35 AM 51.3 °F 47.3 °F 86% 30.03 in 10.0 mi West 3.5 mph - N/A   Clear
3:55 AM 50.5 °F 47.3 °F 89% 30.03 in 10.0 mi West 3.5 mph - N/A   Clear
4:15 AM 50.0 °F 47.5 °F 91% 30.03 in 10.0 mi West 3.5 mph - N/A   Clear
4:35 AM 49.1 °F 47.5 °F 94% 30.04 in 10.0 mi WNW 4.6 mph - N/A   Clear
4:55 AM 49.1 °F 47.1 °F 93% 30.06 in 10.0 mi Calm Calm - N/A   Clear
5:15 AM 48.9 °F 46.9 °F 93% 30.05 in 10.0 mi WNW 3.5 mph - N/A   Clear
5:35 AM 48.6 °F 46.9 °F 94% 30.06 in 10.0 mi West 3.5 mph - N/A   Clear
5:55 AM 48.2 °F 46.9 °F 95% 30.06 in 10.0 mi WNW 4.6 mph - N/A   Clear
6:35 AM 48.2 °F 46.4 °F 93% 30.09 in 10.0 mi WNW 4.6 mph - N/A   Clear
6:55 AM 48.7 °F 45.9 °F 90% 30.09 in 10.0 mi NW 5.8 mph - N/A   Clear
7:15 AM 50.2 °F 45.7 °F 85% 30.10 in 10.0 mi WNW 3.5 mph - N/A   Clear
7:35 AM 50.9 °F 45.9 °F 83% 30.11 in 10.0 mi West 4.6 mph - N/A   Clear
7:55 AM 51.8 °F 46.0 °F 81% 30.12 in 10.0 mi West 4.6 mph - N/A   Clear
8:15 AM 53.6 °F 46.6 °F 77% 30.13 in 10.0 mi West 5.8 mph - N/A   Clear
8:35 AM 55.2 °F 46.6 °F 73% 30.13 in 10.0 mi West 5.8 mph - N/A   Clear
8:55 AM 56.1 °F 46.6 °F 70% 30.14 in 10.0 mi West 5.8 mph - N/A   Clear
9:15 AM 57.2 °F 46.6 °F 68% 30.14 in 10.0 mi West 5.8 mph - N/A   Clear
9:55 AM 60.6 °F 46.6 °F 60% 30.14 in 10.0 mi WNW 5.8 mph - N/A   Clear
10:15 AM 61.5 °F 44.4 °F 53% 30.14 in 10.0 mi WNW 9.2 mph - N/A   Clear
10:35 AM 62.4 °F 42.6 °F 48% 30.15 in 10.0 mi West 13.8 mph 18.4 mph N/A   Clear
10:55 AM 62.2 °F 42.1 °F 48% 30.15 in 10.0 mi West 9.2 mph 18.4 mph N/A   Clear
11:15 AM 62.8 °F 41.4 °F 45% 30.16 in 10.0 mi WNW 8.1 mph 17.3 mph N/A   Clear
11:35 AM 63.5 °F 41.0 °F 44% 30.16 in 10.0 mi NW 10.4 mph 18.4 mph N/A   Clear
11:55 AM 64.0 °F 41.4 °F 43% 30.16 in 10.0 mi NNW 13.8 mph 17.3 mph N/A   Clear
12:15 PM 64.4 °F 42.3 °F 44% 30.16 in 10.0 mi WNW 4.6 mph - N/A   Clear
12:35 PM 64.6 °F 41.7 °F 43% 30.15 in 10.0 mi NW 11.5 mph 17.3 mph N/A   Clear
12:55 PM 65.5 °F 39.4 °F 38% 30.15 in 10.0 mi NW 10.4 mph 16.1 mph N/A   Clear
1:15 PM 65.8 °F 41.4 °F 41% 30.15 in 10.0 mi WNW 6.9 mph - N/A   Clear
1:35 PM 66.0 °F 40.5 °F 39% 30.16 in 10.0 mi NW 9.2 mph - N/A   Clear
1:55 PM 66.4 °F 40.1 °F 38% 30.15 in 10.0 mi NW 10.4 mph 19.6 mph N/A   Clear
2:15 PM 66.6 °F 41.0 °F 39% 30.15 in 10.0 mi WNW 12.7 mph 16.1 mph N/A   Clear
2:35 PM 67.1 °F 40.8 °F 38% 30.15 in 10.0 mi WNW 8.1 mph - N/A   Clear
2:55 PM 68.5 °F 42.8 °F 39% 30.15 in 10.0 mi NNW 10.4 mph - N/A   Clear
3:15 PM 67.3 °F 41.4 °F 39% 30.15 in 10.0 mi NW 6.9 mph - N/A   Clear
3:35 PM 67.5 °F 41.4 °F 39% 30.16 in 10.0 mi NNW 4.6 mph - N/A   Clear
3:55 PM 68.2 °F 42.1 °F 39% 30.16 in 10.0 mi WNW 6.9 mph - N/A   Clear
4:15 PM 67.5 °F 41.9 °F 39% 30.16 in 10.0 mi West 5.8 mph - N/A   Clear
4:35 PM 68.0 °F 41.9 °F 39% 30.16 in 10.0 mi WNW 8.1 mph - N/A   Clear
4:55 PM 68.0 °F 42.6 °F 40% 30.17 in 10.0 mi WNW 6.9 mph - N/A   Clear
5:15 PM 68.0 °F 43.0 °F 40% 30.17 in 10.0 mi WNW 6.9 mph - N/A   Scattered Clouds
5:35 PM 67.5 °F 42.3 °F 40% 30.18 in 10.0 mi WNW 5.8 mph - N/A   Scattered Clouds
5:55 PM 67.5 °F 43.3 °F 42% 30.18 in 10.0 mi WNW 4.6 mph - N/A   Clear
6:15 PM 67.1 °F 43.0 °F 42% 30.18 in 10.0 mi WNW 3.5 mph - N/A   Clear
6:35 PM 66.2 °F 43.9 °F 44% 30.19 in 10.0 mi West 4.6 mph - N/A   Clear
6:55 PM 65.5 °F 44.6 °F 47% 30.19 in 10.0 mi West 3.5 mph - N/A   Clear
7:15 PM 64.8 °F 44.8 °F 48% 30.20 in 10.0 mi Calm Calm - N/A   Scattered Clouds
7:35 PM 62.8 °F 46.4 °F 55% 30.20 in 10.0 mi West 3.5 mph - N/A   Scattered Clouds
7:55 PM 60.8 °F 47.3 °F 61% 30.21 in 10.0 mi Calm Calm - N/A   Clear
8:15 PM 59.0 °F 48.2 °F 67% 30.22 in 10.0 mi West 3.5 mph - N/A   Scattered Clouds
8:35 PM 55.0 °F 46.8 °F 74% 30.22 in 10.0 mi Calm Calm - N/A   Mostly Cloudy
8:55 PM 53.4 °F 47.3 °F 80% 30.23 in 10.0 mi Calm Calm - N/A   Scattered Clouds
9:15 PM 51.8 °F 46.4 °F 82% 30.23 in 10.0 mi Calm Calm - N/A   Clear
9:35 PM 50.5 °F 46.9 °F 87% 30.23 in 10.0 mi Calm Calm - N/A   Clear
9:55 PM 49.1 °F 47.3 °F 93% 30.24 in 10.0 mi Calm Calm - N/A   Clear
10:15 PM 49.5 °F 47.3 °F 92% 30.25 in 10.0 mi Calm Calm - N/A   Clear
10:35 PM 48.2 °F 45.9 °F 92% 30.25 in 10.0 mi Calm Calm - N/A   Clear
10:55 PM 46.6 °F 45.5 °F 96% 30.26 in 10.0 mi Calm Calm - N/A   Clear
11:15 PM 45.9 °F 45.5 °F 99% 30.26 in 10.0 mi Calm Calm - N/A   Clear
11:35 PM 48.2 °F 46.6 °F 94% 30.26 in 10.0 mi Calm Calm - N/A   Clear
11:55 PM 47.1 °F 45.9 °F 95% 30.26 in 10.0 mi Calm Calm - N/A   Clear